WXM80 ListenWXM80 Stop

You find our weather info also at:

UK Metoffice

WeatherCloud

Weather Underground

Northeastern Weather Network

AWEKAS

Citizen Weather Observer Program (CWOP)

HAMweather, WeatherForYou, PWS Weather


Weather Underground History page Text

Daily Summary for November 13, 2017 Units:  Metric    English   Both
« Previous Day
Next Day »
Daily Weekly Monthly Yearly Custom
  High: Low: Average:
Temperature: 8.3 °C 2.8 °C 6.7 °C
Dew Point: 5.7 °C 0.4 °C 3.9 °C
Humidity: 87 % 76 % 82 %
Wind Speed: 16.7 km/h 0 km/h 6 km/h
Wind Gust: 22.5 km/h - -
Wind:- - ENE
Pressure: 1028.7 hPa 1023.9 hPa -
Precipitation: 0 mm    
Historical Graphs
 
 
Tabular Data for November 13, 2017
Time Temperature Dew Point Pressure Wind Wind Speed Wind Gust Humidity Rainfall Rate (Hourly)
00:01 2.8 °C 0.6 °C 1028.7 hPa Calm     85 % 0 mm
00:06 2.8 °C 0.4 °C 1028.7 hPa Calm   1.9 km/h 84 % 0 mm
00:10 2.8 °C 0.4 °C 1028.3 hPa Calm     84 % 0 mm
00:15 2.8 °C 0.4 °C 1028 hPa Calm     84 % 0 mm
00:20 2.9 °C 0.4 °C 1028.3 hPa Calm     84 % 0 mm
00:25 2.9 °C 0.5 °C 1028.3 hPa Calm     84 % 0 mm
00:30 2.9 °C 0.5 °C 1028.3 hPa Calm     84 % 0 mm
00:35 2.9 °C 0.5 °C 1028 hPa Calm     84 % 0 mm
00:40 3 °C 0.6 °C 1028 hPa Calm     84 % 0 mm
00:45 3 °C 0.6 °C 1028 hPa Calm     84 % 0 mm
00:50 3.1 °C 0.6 °C 1028 hPa Calm     84 % 0 mm
00:55 3.1 °C 0.7 °C 1028 hPa Calm     84 % 0 mm
01:00 3.2 °C 0.7 °C 1028 hPa Calm     84 % 0 mm
01:05 3.2 °C 0.7 °C 1027.7 hPa Calm     84 % 0 mm
01:10 3.2 °C 0.7 °C 1027.7 hPa Calm     84 % 0 mm
01:15 3.2 °C 0.8 °C 1027.3 hPa Calm   1.9 km/h 84 % 0 mm
01:20 3.2 °C 0.8 °C 1027.7 hPa Calm     84 % 0 mm
01:25 3.3 °C 0.8 °C 1027.3 hPa Calm     84 % 0 mm
01:30 3.3 °C 0.9 °C 1027.7 hPa Calm   1.9 km/h 84 % 0 mm
01:35 3.4 °C 0.9 °C 1027.7 hPa SW 0.2 km/h   84 % 0 mm
01:41 3.4 °C 1 °C 1027.7 hPa Calm     84 % 0 mm
01:46 3.5 °C 1.1 °C 1027.3 hPa Calm     84 % 0 mm
01:51 3.6 °C 1.1 °C 1027.3 hPa Calm     84 % 0 mm
01:56 3.6 °C 1.3 °C 1027.7 hPa Calm     85 % 0 mm
02:01 3.7 °C 1.4 °C 1027.7 hPa Calm     85 % 0 mm
02:06 3.7 °C 1.4 °C 1027.3 hPa Calm   1.6 km/h 85 % 0 mm
02:11 3.8 °C 1.5 °C 1027.3 hPa Calm   1.6 km/h 85 % 0 mm
02:16 3.8 °C 1.7 °C 1027.3 hPa Calm   1.6 km/h 86 % 0 mm
02:21 3.8 °C 1.7 °C 1027.3 hPa Calm   3.2 km/h 86 % 0 mm
02:26 3.9 °C 1.8 °C 1027.3 hPa ENE 1.6 km/h 5.6 km/h 86 % 0 mm
02:31 4 °C 1.9 °C 1027 hPa ENE 3.2 km/h 6.4 km/h 86 % 0 mm
02:36 4.2 °C 2.2 °C 1027 hPa ENE 3.2 km/h 8 km/h 87 % 0 mm
02:41 4.3 °C 2.2 °C 1027.3 hPa Calm   6.4 km/h 86 % 0 mm
02:46 4.4 °C 2.3 °C 1027 hPa Calm     86 % 0 mm
02:51 4.6 °C 2.4 °C 1027.3 hPa Calm     86 % 0 mm
02:56 4.7 °C 2.4 °C 1027.3 hPa ENE 1.8 km/h 3.2 km/h 85 % 0 mm
03:01 4.9 °C 2.6 °C 1027.3 hPa ENE 3.7 km/h 5.6 km/h 85 % 0 mm
03:06 5.1 °C 2.6 °C 1027 hPa ENE 3.2 km/h 8 km/h 84 % 0 mm
03:11 5.3 °C 2.6 °C 1027 hPa ENE 4.8 km/h 11.3 km/h 83 % 0 mm
03:16 5.6 °C 2.7 °C 1027 hPa ENE 1.6 km/h 6.4 km/h 82 % 0 mm
03:21 5.8 °C 2.9 °C 1026.6 hPa ENE 9.7 km/h 14.5 km/h 82 % 0 mm
03:26 6.1 °C 3.1 °C 1026.6 hPa ENE 8 km/h 12.9 km/h 81 % 0 mm
03:31 6.3 °C 3 °C 1026.6 hPa ENE 8 km/h 9.7 km/h 79 % 0 mm
03:36 6.6 °C 3 °C 1027 hPa ENE 4.8 km/h 11.3 km/h 78 % 0 mm
03:41 6.7 °C 3.2 °C 1027 hPa ENE 4.8 km/h 12.9 km/h 78 % 0 mm
03:46 6.8 °C 3.1 °C 1027 hPa ENE 3.2 km/h 12.9 km/h 77 % 0 mm
03:51 6.8 °C 3.1 °C 1027 hPa ENE 4.8 km/h 9.7 km/h 77 % 0 mm
03:56 6.9 °C 3 °C 1027 hPa ENE 4.8 km/h 11.3 km/h 76 % 0 mm
04:01 7 °C 3.1 °C 1027 hPa ENE 6.3 km/h 8 km/h 76 % 0 mm
04:06 7.1 °C 3.1 °C 1027 hPa ENE 3.2 km/h 14.5 km/h 76 % 0 mm
04:11 7.1 °C 3.2 °C 1026.6 hPa ENE 3.2 km/h 8 km/h 76 % 0 mm
04:16 7.2 °C 3.2 °C 1026.6 hPa ENE 4.8 km/h 12.9 km/h 76 % 0 mm
04:21 7.2 °C 3.3 °C 1026.6 hPa ENE 4.8 km/h 12.9 km/h 76 % 0 mm
04:26 7.3 °C 3.3 °C 1027 hPa ENE 4.8 km/h 12.9 km/h 76 % 0 mm
04:31 7.3 °C 3.4 °C 1027 hPa ENE 1.6 km/h 12.9 km/h 76 % 0 mm
04:36 7.3 °C 3.4 °C 1026.6 hPa ENE 8 km/h 14.5 km/h 76 % 0 mm
04:41 7.4 °C 3.4 °C 1026.3 hPa ENE 9.7 km/h 16.1 km/h 76 % 0 mm
04:46 7.4 °C 3.4 °C 1027 hPa ENE 3.2 km/h 14.5 km/h 76 % 0 mm
04:51 7.4 °C 3.7 °C 1027 hPa ENE 8 km/h 11.3 km/h 77 % 0 mm
04:56 7.4 °C 3.7 °C 1027 hPa ENE 3.2 km/h 6.4 km/h 77 % 0 mm
05:01 7.5 °C 3.7 °C 1027 hPa ENE 0.8 km/h 7.4 km/h 77 % 0 mm
05:06 7.5 °C 3.9 °C 1027.3 hPa ENE 1.6 km/h 7.4 km/h 78 % 0 mm
05:11 7.5 °C 3.9 °C 1027.3 hPa ENE 5.6 km/h 13 km/h 78 % 0 mm
05:16 7.5 °C 3.9 °C 1027.3 hPa ENE 1.8 km/h 3.7 km/h 78 % 0 mm
05:21 7.6 °C 4.2 °C 1027.3 hPa East 1.4 km/h 3.7 km/h 79 % 0 mm
05:26 7.6 °C 3.9 °C 1027.3 hPa ENE 6.4 km/h 8 km/h 78 % 0 mm
05:31 7.6 °C 3.9 °C 1027.3 hPa ENE 5 km/h 9.3 km/h 78 % 0 mm
05:36 7.6 °C 4 °C 1027 hPa ENE 4 km/h 8 km/h 78 % 0 mm
05:41 7.6 °C 4.2 °C 1027 hPa ENE 3.4 km/h 5.6 km/h 79 % 0 mm
05:46 7.6 °C 4.2 °C 1027 hPa East 2.4 km/h 5.6 km/h 79 % 0 mm
05:51 7.7 °C 4.4 °C 1027 hPa ENE 1.9 km/h 3.7 km/h 80 % 0 mm
05:56 7.7 °C 4.4 °C 1026.6 hPa ENE 3.2 km/h 8 km/h 80 % 0 mm
06:01 7.7 °C 4.4 °C 1026.6 hPa ENE 3.1 km/h 5.6 km/h 80 % 0 mm
06:06 7.7 °C 4.4 °C 1026.3 hPa NE 4.8 km/h 11.1 km/h 80 % 0 mm
06:11 7.7 °C 4.5 °C 1026.3 hPa ENE 5.1 km/h 11.1 km/h 80 % 0 mm
06:16 7.7 °C 4.7 °C 1026.3 hPa ENE 5.8 km/h 6.4 km/h 81 % 0 mm
06:21 7.7 °C 4.5 °C 1026.3 hPa ENE 3.9 km/h 13 km/h 80 % 0 mm
06:26 7.8 °C 4.6 °C 1026.3 hPa ENE 9.2 km/h 16.7 km/h 80 % 0 mm
06:31 7.8 °C 4.6 °C 1026 hPa ENE 5.3 km/h 11.1 km/h 80 % 0 mm
06:32 7.8 °C 4.6 °C 1026 hPa ENE 7.1 km/h 11.3 km/h 80 % 0 mm
06:37 7.8 °C 4.6 °C 1026 hPa ENE 11.4 km/h 14.5 km/h 80 % 0 mm
06:42 7.9 °C 4.7 °C 1026 hPa ENE 6 km/h 7.4 km/h 80 % 0 mm
06:47 7.9 °C 4.7 °C 1026 hPa NE 9.3 km/h 14.8 km/h 80 % 0 mm
06:52 8 °C 4.9 °C 1026 hPa East 5.3 km/h 9.3 km/h 81 % 0 mm
06:57 8.1 °C 4.8 °C 1026.3 hPa East 8.9 km/h 14.8 km/h 80 % 0 mm
07:02 8.1 °C 4.8 °C 1026.3 hPa Calm   3.7 km/h 80 % 0 mm
07:07 8.1 °C 4.8 °C 1026.6 hPa SSE 0.2 km/h 1.6 km/h 80 % 0 mm
07:12 8.1 °C 4.8 °C 1026.3 hPa ENE 5.8 km/h 11.3 km/h 80 % 0 mm
07:17 8.1 °C 5 °C 1026.3 hPa ENE 2.9 km/h 13 km/h 81 % 0 mm
07:22 8.1 °C 5 °C 1026.6 hPa Calm     81 % 0 mm
07:27 8.1 °C 4.8 °C 1026.6 hPa East 1 km/h 8 km/h 80 % 0 mm
07:32 8.1 °C 5 °C 1027 hPa East 0.2 km/h 1.9 km/h 81 % 0 mm
07:37 8.1 °C 4.8 °C 1027 hPa ESE 4.2 km/h 13 km/h 80 % 0 mm
07:42 8 °C 4.6 °C 1027.3 hPa NNE 3.7 km/h 5.6 km/h 79 % 0 mm
07:47 7.9 °C 4.5 °C 1027.3 hPa ENE 3.2 km/h 6.4 km/h 79 % 0 mm
07:52 7.9 °C 4.7 °C 1027.3 hPa ENE 4.2 km/h 7.4 km/h 80 % 0 mm
07:57 8 °C 4.8 °C 1027.3 hPa ENE 6 km/h 6.4 km/h 80 % 0 mm
08:02 8 °C 4.8 °C 1027.3 hPa ENE 4.2 km/h 5.6 km/h 80 % 0 mm
08:07 8 °C 4.6 °C 1027 hPa ENE 5.1 km/h 7.4 km/h 79 % 0 mm
08:12 7.9 °C 4.5 °C 1027 hPa ENE 2.6 km/h 11.1 km/h 79 % 0 mm
08:17 7.9 °C 4.3 °C 1027 hPa East 4.8 km/h 11.3 km/h 78 % 0 mm
08:22 7.9 °C 4.3 °C 1027 hPa ENE 7.2 km/h 11.3 km/h 78 % 0 mm
08:28 7.8 °C 4.2 °C 1027 hPa ENE 8.5 km/h 16.7 km/h 78 % 0 mm
08:33 7.8 °C 4.2 °C 1027 hPa East 6 km/h 13 km/h 78 % 0 mm
08:38 7.8 °C 4.2 °C 1027 hPa ENE 6.9 km/h 11.3 km/h 78 % 0 mm
08:43 7.7 °C 4.1 °C 1027 hPa ENE 6.6 km/h 14.8 km/h 78 % 0 mm
08:48 7.7 °C 4.1 °C 1027 hPa ENE 5.6 km/h 14.8 km/h 78 % 0 mm
08:53 7.7 °C 4.3 °C 1026.6 hPa ENE 10.5 km/h 14.8 km/h 79 % 0 mm
08:58 7.7 °C 4.3 °C 1026.6 hPa ENE 8.4 km/h 18.5 km/h 79 % 0 mm
09:03 7.6 °C 4.2 °C 1026.6 hPa ENE 7.4 km/h 14.8 km/h 79 % 0 mm
09:08 7.6 °C 4.3 °C 1026.6 hPa NE 4.8 km/h 11.1 km/h 80 % 0 mm
09:13 7.5 °C 4.3 °C 1026.6 hPa ENE 4.3 km/h 5.6 km/h 80 % 0 mm
09:18 7.4 °C 4.4 °C 1026.6 hPa NE 5.5 km/h 7.4 km/h 81 % 0 mm
09:23 7.4 °C 4.6 °C 1026.6 hPa NE 3.5 km/h 11.1 km/h 82 % 0 mm
09:28 7.3 °C 4.3 °C 1027 hPa ENE 6.8 km/h 7.4 km/h 81 % 0 mm
09:33 7.3 °C 4.2 °C 1027 hPa ENE 4 km/h 5.6 km/h 81 % 0 mm
09:38 7.3 °C 4.2 °C 1027 hPa ENE 7.9 km/h 11.1 km/h 81 % 0 mm
09:43 7.3 °C 4.4 °C 1026.6 hPa NE 2.7 km/h 5.6 km/h 82 % 0 mm
09:48 7.3 °C 4.4 °C 1027 hPa ENE 5.1 km/h 7.4 km/h 82 % 0 mm
09:53 7.3 °C 4.4 °C 1027 hPa ENE 5 km/h 7.4 km/h 82 % 0 mm
09:59 7.3 °C 4.6 °C 1027 hPa ENE 5.1 km/h 6.4 km/h 83 % 0 mm
10:04 7.3 °C 4.6 °C 1026.6 hPa ENE 6.8 km/h 13 km/h 83 % 0 mm
10:09 7.3 °C 4.6 °C 1027 hPa ENE 5.1 km/h 14.8 km/h 83 % 0 mm
10:14 7.3 °C 4.6 °C 1027 hPa NNE 2.3 km/h 9.3 km/h 83 % 0 mm
10:19 7.4 °C 4.7 °C 1027 hPa NE 5.8 km/h 11.1 km/h 83 % 0 mm
10:24 7.4 °C 4.7 °C 1026.6 hPa NE 4.2 km/h 9.3 km/h 83 % 0 mm
10:29 7.4 °C 4.7 °C 1026.6 hPa North 4.8 km/h 7.4 km/h 83 % 0 mm
10:34 7.4 °C 4.7 °C 1027 hPa NE 3.2 km/h 7.4 km/h 83 % 0 mm
10:39 7.5 °C 4.9 °C 1027.3 hPa NNE 2.3 km/h 8 km/h 84 % 0 mm
10:44 7.6 °C 5.2 °C 1027 hPa NNE 7.2 km/h 11.1 km/h 85 % 0 mm
10:49 7.6 °C 5.2 °C 1027 hPa NNE 1.8 km/h 7.4 km/h 85 % 0 mm
10:50 7.6 °C 5.2 °C 1026.6 hPa ENE 3.7 km/h 5.6 km/h 85 % 0 mm
10:55 7.6 °C 5.2 °C 1026.6 hPa North 3.5 km/h 11.1 km/h 85 % 0 mm
11:00 7.7 °C 5.5 °C 1027 hPa NNE 6.4 km/h 9.3 km/h 86 % 0 mm
11:05 7.7 °C 5.5 °C 1027 hPa East 7.6 km/h 13 km/h 86 % 0 mm
11:10 7.7 °C 5.5 °C 1026.6 hPa North 6.9 km/h 9.3 km/h 86 % 0 mm
11:15 7.7 °C 5.5 °C 1026.6 hPa NNE 4.3 km/h 9.3 km/h 86 % 0 mm
11:20 7.7 °C 5.5 °C 1026.3 hPa NNE 6.1 km/h 8 km/h 86 % 0 mm
11:25 7.6 °C 5.4 °C 1026 hPa NE 2.7 km/h 7.4 km/h 86 % 0 mm
11:30 7.6 °C 5.4 °C 1026 hPa NNE 6.4 km/h 11.1 km/h 86 % 0 mm
11:35 7.6 °C 5.6 °C 1026 hPa NNE 3.5 km/h 7.4 km/h 87 % 0 mm
11:40 7.6 °C 5.4 °C 1025.6 hPa NNE 1.1 km/h 5.6 km/h 86 % 0 mm
11:46 7.7 °C 5.6 °C 1025.3 hPa NNE 4.8 km/h 12.9 km/h 87 % 0 mm
11:51 7.7 °C 5.7 °C 1025.6 hPa NNE 4.8 km/h 12.9 km/h 87 % 0 mm
11:56 7.7 °C 5.7 °C 1025.3 hPa NE 3.9 km/h 3.9 km/h 87 % 0 mm
12:01 7.8 °C 5.6 °C 1025.3 hPa NNE 6.3 km/h 13 km/h 86 % 0 mm
12:06 7.8 °C 5.6 °C 1025.3 hPa North 5.8 km/h 9.7 km/h 86 % 0 mm
12:11 7.8 °C 5.6 °C 1025.3 hPa NE 2.6 km/h 11.1 km/h 86 % 0 mm
12:16 7.8 °C 5.6 °C 1024.9 hPa NNE 8 km/h 12.9 km/h 86 % 0 mm
12:21 7.8 °C 5.4 °C 1025.3 hPa NNE 9.7 km/h 16.1 km/h 85 % 0 mm
12:26 7.8 °C 5.4 °C 1024.9 hPa North 9.7 km/h 16.1 km/h 85 % 0 mm
12:31 7.8 °C 5.4 °C 1024.9 hPa NNE 9.7 km/h 19.3 km/h 85 % 0 mm
12:36 7.8 °C 5.4 °C 1024.9 hPa North 7.9 km/h 16.7 km/h 85 % 0 mm
12:41 7.8 °C 5.4 °C 1024.9 hPa NE 4.7 km/h 14.8 km/h 85 % 0 mm
12:46 7.8 °C 5.4 °C 1024.9 hPa NE 11.1 km/h 13 km/h 85 % 0 mm
12:51 7.8 °C 5.4 °C 1024.9 hPa NNE 10.6 km/h 16.7 km/h 85 % 0 mm
12:56 7.9 °C 5.5 °C 1024.6 hPa NNE 8.9 km/h 16.7 km/h 85 % 0 mm
13:01 7.9 °C 5.6 °C 1024.9 hPa NE 12.2 km/h 18.5 km/h 85 % 0 mm
13:06 8 °C 5.4 °C 1024.6 hPa NNE 9.5 km/h 16.7 km/h 84 % 0 mm
13:11 8 °C 5.4 °C 1024.9 hPa North 10.1 km/h 17.7 km/h 84 % 0 mm
13:16 8 °C 5.4 °C 1024.9 hPa NE 7.6 km/h 16.7 km/h 84 % 0 mm
13:21 7.9 °C 5.4 °C 1024.6 hPa NNE 10.6 km/h 14.8 km/h 84 % 0 mm
13:26 7.9 °C 5.4 °C 1024.6 hPa NNE 9.8 km/h 11.3 km/h 84 % 0 mm
13:32 7.9 °C 5.4 °C 1024.6 hPa North 8.5 km/h 13 km/h 84 % 0 mm
13:37 7.9 °C 5.4 °C 1024.6 hPa NNE 6.4 km/h 11.1 km/h 84 % 0 mm
13:42 8 °C 5.3 °C 1024.6 hPa North 6.1 km/h 13 km/h 83 % 0 mm
13:47 8.1 °C 5.3 °C 1024.6 hPa North 6 km/h 13 km/h 83 % 0 mm
13:52 8.1 °C 5.2 °C 1024.3 hPa NNE 6 km/h 18.5 km/h 82 % 0 mm
13:57 8.2 °C 5.3 °C 1024.6 hPa ENE 5.5 km/h 11.3 km/h 82 % 0 mm
14:02 8.2 °C 5.1 °C 1024.3 hPa NNE 10 km/h 14.5 km/h 81 % 0 mm
14:07 8.2 °C 5.1 °C 1024.6 hPa North 8.9 km/h 16.7 km/h 81 % 0 mm
14:12 8.2 °C 5.1 °C 1024.6 hPa North 8 km/h 14.5 km/h 81 % 0 mm
14:17 8.2 °C 5.2 °C 1024.6 hPa NNE 5.6 km/h 7.4 km/h 81 % 0 mm
14:22 8.2 °C 5 °C 1024.9 hPa North 7.6 km/h 13 km/h 80 % 0 mm
14:27 8.2 °C 5.2 °C 1024.6 hPa ENE 5 km/h 5.6 km/h 81 % 0 mm
14:32 8.2 °C 5.2 °C 1024.6 hPa NE 2.6 km/h 7.4 km/h 81 % 0 mm
14:37 8.2 °C 5.2 °C 1024.6 hPa NE 3.2 km/h 7.4 km/h 81 % 0 mm
14:42 8.2 °C 5 °C 1024.6 hPa NNW 2.9 km/h 13 km/h 80 % 0 mm
14:48 8.2 °C 5 °C 1024.6 hPa NNE 5.8 km/h 13 km/h 80 % 0 mm
14:53 8.2 °C 5 °C 1024.6 hPa NNE 3.2 km/h 5.6 km/h 80 % 0 mm
14:58 8.2 °C 5 °C 1024.6 hPa North 2.6 km/h 5.6 km/h 80 % 0 mm
15:03 8.2 °C 5 °C 1024.6 hPa NE 4 km/h 9.3 km/h 80 % 0 mm
15:08 8.3 °C 5.1 °C 1024.6 hPa North 6.4 km/h 13 km/h 80 % 0 mm
15:13 8.3 °C 4.8 °C 1024.6 hPa NNE 6.8 km/h 13 km/h 79 % 0 mm
15:18 8.3 °C 4.8 °C 1024.6 hPa North 9.8 km/h 14.8 km/h 79 % 0 mm
15:23 8.3 °C 4.7 °C 1024.3 hPa NNE 7.9 km/h 11.3 km/h 78 % 0 mm
15:28 8.3 °C 4.7 °C 1024.3 hPa NNE 7.6 km/h 14.8 km/h 78 % 0 mm
15:33 8.3 °C 4.7 °C 1024.3 hPa NNE 8 km/h 14.8 km/h 78 % 0 mm
15:38 8.3 °C 4.7 °C 1024.6 hPa North 7.7 km/h 14.8 km/h 78 % 0 mm
15:43 8.3 °C 4.8 °C 1024.3 hPa North 3.9 km/h 6.4 km/h 79 % 0 mm
15:48 8.3 °C 4.8 °C 1024.3 hPa North 7.9 km/h 12.9 km/h 79 % 0 mm
15:53 8.2 °C 4.8 °C 1024.3 hPa NE 9.3 km/h 13 km/h 79 % 0 mm
15:58 8.2 °C 4.9 °C 1024.3 hPa NNE 2.9 km/h 7.4 km/h 80 % 0 mm
16:03 8.2 °C 4.9 °C 1024.3 hPa NNE 8.7 km/h 13 km/h 80 % 0 mm
16:08 8.1 °C 5.1 °C 1024.3 hPa NNE 3.5 km/h 8 km/h 81 % 0 mm
16:13 8.1 °C 5 °C 1024.3 hPa NNE 7.1 km/h 12.9 km/h 81 % 0 mm
16:16 8.1 °C 5 °C 1024.3 hPa NNE 4.3 km/h 9.3 km/h 81 % 0 mm
16:21 8 °C 4.8 °C 1024.3 hPa NE 6 km/h 9.3 km/h 80 % 0 mm
16:26 8 °C 4.8 °C 1024.3 hPa NE 4 km/h 7.4 km/h 80 % 0 mm
16:31 7.9 °C 4.7 °C 1023.9 hPa NNE 9.2 km/h 16.7 km/h 80 % 0 mm
16:36 7.9 °C 4.7 °C 1024.3 hPa NNE 13 km/h 20.4 km/h 80 % 0 mm
16:41 7.9 °C 4.7 °C 1024.3 hPa NNE 1.1 km/h 5.6 km/h 80 % 0 mm
16:46 7.8 °C 4.8 °C 1024.3 hPa NE 3.7 km/h 7.4 km/h 81 % 0 mm
16:51 7.7 °C 4.5 °C 1024.3 hPa NNE 5 km/h 16.7 km/h 80 % 0 mm
16:56 7.6 °C 4.4 °C 1024.3 hPa NNE 9.7 km/h 11.3 km/h 80 % 0 mm
17:02 7.5 °C 4.4 °C 1024.3 hPa North 9.2 km/h 11.3 km/h 81 % 0 mm
17:07 7.4 °C 4.4 °C 1024.3 hPa North 3.9 km/h 9.7 km/h 81 % 0 mm
17:12 7.4 °C 4.5 °C 1024.6 hPa NNE 8.5 km/h 13 km/h 82 % 0 mm
17:17 7.3 °C 4.6 °C 1024.6 hPa NNE 6.4 km/h 13 km/h 83 % 0 mm
17:22 7.3 °C 4.8 °C 1024.6 hPa North 8.9 km/h 14.8 km/h 84 % 0 mm
17:27 7.3 °C 4.8 °C 1024.6 hPa NNE 6.9 km/h 14.8 km/h 84 % 0 mm
17:32 7.2 °C 4.5 °C 1024.6 hPa NNE 7.7 km/h 14.8 km/h 83 % 0 mm
17:37 7.2 °C 4.4 °C 1024.6 hPa North 7.6 km/h 14.8 km/h 83 % 0 mm
17:42 7.2 °C 4.4 °C 1024.6 hPa NNE 10.1 km/h 16.7 km/h 83 % 0 mm
17:47 7.1 °C 4.4 °C 1024.6 hPa NNE 12.9 km/h 18.5 km/h 83 % 0 mm
17:52 7.1 °C 4.4 °C 1024.9 hPa NNE 6.9 km/h 9.3 km/h 83 % 0 mm
17:57 7 °C 4.3 °C 1024.9 hPa NNE 5.8 km/h 7.4 km/h 83 % 0 mm
18:03 6.9 °C 4.3 °C 1024.9 hPa NE 9.7 km/h 18.5 km/h 83 % 0 mm
18:08 6.9 °C 4.2 °C 1024.9 hPa NNE 8.5 km/h 14.8 km/h 83 % 0 mm
18:13 6.8 °C 4.2 °C 1024.9 hPa NNW 8.9 km/h 14.8 km/h 83 % 0 mm
18:18 6.8 °C 4.1 °C 1024.9 hPa NE 10 km/h 16.7 km/h 83 % 0 mm
18:23 6.7 °C 4.1 °C 1025.3 hPa NNE 5.6 km/h 9.3 km/h 83 % 0 mm
18:28 6.7 °C 4 °C 1024.9 hPa North 12.6 km/h 22.2 km/h 83 % 0 mm
18:33 6.6 °C 3.9 °C 1024.9 hPa North 10.5 km/h 14.8 km/h 83 % 0 mm
18:38 6.6 °C 3.9 °C 1024.9 hPa ENE 10.8 km/h 18.5 km/h 83 % 0 mm
18:43 6.6 °C 3.7 °C 1025.3 hPa North 12.1 km/h 18.5 km/h 82 % 0 mm
18:48 6.6 °C 3.7 °C 1025.3 hPa NNE 9.8 km/h 22.2 km/h 82 % 0 mm
18:53 6.5 °C 3.7 °C 1024.9 hPa ENE 7.9 km/h 14.8 km/h 82 % 0 mm
18:58 6.5 °C 3.7 °C 1025.3 hPa North 10.6 km/h 16.1 km/h 82 % 0 mm
19:03 6.5 °C 3.7 °C 1025.3 hPa NNE 13.4 km/h 19.3 km/h 82 % 0 mm
19:08 6.4 °C 3.6 °C 1025.3 hPa NNE 6.1 km/h 11.1 km/h 82 % 0 mm
19:13 6.4 °C 3.6 °C 1025.3 hPa NNE 8.5 km/h 14.8 km/h 82 % 0 mm
19:18 6.4 °C 3.8 °C 1025.3 hPa NE 8 km/h 14.8 km/h 83 % 0 mm
19:23 6.4 °C 3.6 °C 1025.3 hPa NE 11.9 km/h 19.3 km/h 82 % 0 mm
19:28 6.4 °C 3.6 °C 1025.3 hPa NNE 12.4 km/h 18.5 km/h 82 % 0 mm
19:33 6.3 °C 3.5 °C 1026 hPa NNE 7.4 km/h 9.3 km/h 82 % 0 mm
19:36 6.3 °C 3.7 °C 1026 hPa NE 11.9 km/h 13 km/h 83 % 0 mm
19:41 6.3 °C 3.5 °C 1026 hPa North 7.9 km/h 18.5 km/h 82 % 0 mm
19:46 6.3 °C 3.6 °C 1025.6 hPa NNE 12.2 km/h 18.5 km/h 83 % 0 mm
19:51 6.3 °C 3.6 °C 1025.6 hPa North 9.7 km/h 16.7 km/h 83 % 0 mm
19:56 6.2 °C 3.7 °C 1025.6 hPa NNE 10.1 km/h 16.7 km/h 84 % 0 mm
20:02 6.2 °C 3.9 °C 1025.6 hPa NNE 8.2 km/h 11.1 km/h 85 % 0 mm
20:07 6.2 °C 3.8 °C 1026 hPa North 9.3 km/h 17.7 km/h 85 % 0 mm
20:12 6.1 °C 3.6 °C 1025.6 hPa NE 5.1 km/h 11.1 km/h 84 % 0 mm
20:17 6.1 °C 3.7 °C 1025.6 hPa NNE 8.4 km/h 16.7 km/h 85 % 0 mm
20:22 6 °C 3.7 °C 1025.6 hPa NNE 7.1 km/h 11.3 km/h 85 % 0 mm
20:27 5.9 °C 3.6 °C 1025.6 hPa North 9.3 km/h 14.8 km/h 85 % 0 mm
20:32 5.9 °C 3.6 °C 1025.6 hPa NNW 10.5 km/h 18.5 km/h 85 % 0 mm
20:37 5.8 °C 3.5 °C 1025.3 hPa NNW 3.9 km/h 9.3 km/h 85 % 0 mm
20:42 5.8 °C 3.7 °C 1026 hPa NNE 6.8 km/h 16.7 km/h 86 % 0 mm
20:47 5.8 °C 3.5 °C 1025.6 hPa NNE 8.2 km/h 16.7 km/h 85 % 0 mm
20:52 5.8 °C 3.6 °C 1025.3 hPa NNE 5.3 km/h 13 km/h 86 % 0 mm
20:57 5.8 °C 3.4 °C 1025.3 hPa NNE 9.2 km/h 14.5 km/h 85 % 0 mm
21:02 5.8 °C 3.3 °C 1025.3 hPa NNE 16.1 km/h 22.2 km/h 84 % 0 mm
21:07 5.8 °C 3.3 °C 1026 hPa NNE 13.4 km/h 18.5 km/h 84 % 0 mm
21:12 5.8 °C 3.3 °C 1026 hPa NNE 9.5 km/h 14.8 km/h 84 % 0 mm
21:17 5.9 °C 3.6 °C 1026 hPa North 9.8 km/h 14.8 km/h 85 % 0 mm
21:22 5.9 °C 3.6 °C 1025.3 hPa NNE 10.5 km/h 18.5 km/h 85 % 0 mm
21:27 5.8 °C 3.3 °C 1025.3 hPa NNE 9.2 km/h 14.8 km/h 84 % 0 mm
21:32 5.8 °C 3.5 °C 1025.3 hPa North 16.7 km/h 20.4 km/h 85 % 0 mm
21:37 5.8 °C 3.3 °C 1025.6 hPa North 8.2 km/h 16.7 km/h 84 % 0 mm
21:42 5.7 °C 3.2 °C 1025.3 hPa North 12.2 km/h 22.5 km/h 84 % 0 mm
21:47 5.7 °C 3.3 °C 1025.3 hPa NE 11.4 km/h 18.5 km/h 85 % 0 mm
21:52 5.7 °C 3.3 °C 1025.3 hPa NNE 9.8 km/h 16.7 km/h 85 % 0 mm
21:58 5.6 °C 3.3 °C 1026.3 hPa North 11.3 km/h 18.5 km/h 85 % 0 mm
22:02 5.6 °C 3.1 °C 1025.3 hPa NNE 12.7 km/h 22.5 km/h 84 % 0 mm
22:08 5.6 °C 3.1 °C 1025.3 hPa NNE 8.4 km/h 18.5 km/h 84 % 0 mm
22:15 5.5 °C 2.8 °C 1025.3 hPa NNE 11.1 km/h 20.4 km/h 83 % 0 mm
22:20 5.5 °C 3 °C 1025.3 hPa NNE 10 km/h 20.4 km/h 84 % 0 mm
22:22 5.5 °C 3 °C 1025.3 hPa NNE 9.8 km/h 18.5 km/h 84 % 0 mm
22:27 5.5 °C 3 °C 1025.3 hPa NNE 12.6 km/h 20.4 km/h 84 % 0 mm
22:32 5.5 °C 3.2 °C 1025.3 hPa NE 9.5 km/h 16.7 km/h 85 % 0 mm
22:37 5.4 °C 3.1 °C 1025.3 hPa NNE 7.9 km/h 16.1 km/h 85 % 0 mm
22:42 5.4 °C 3.3 °C 1025.3 hPa NNE 8 km/h 13 km/h 86 % 0 mm
22:47 5.4 °C 3.3 °C 1024.9 hPa North 7.1 km/h 16.7 km/h 86 % 0 mm
22:52 5.4 °C 3.1 °C 1024.9 hPa North 7.7 km/h 16.7 km/h 85 % 0 mm
22:57 5.3 °C 3 °C 1024.9 hPa North 8.5 km/h 11.3 km/h 85 % 0 mm
23:02 5.3 °C 3 °C 1024.9 hPa NE 6.8 km/h 9.3 km/h 85 % 0 mm
23:07 5.3 °C 2.9 °C 1024.9 hPa NE 10.9 km/h 14.8 km/h 85 % 0 mm
23:12 5.2 °C 2.9 °C 1024.9 hPa North 7.1 km/h 14.8 km/h 85 % 0 mm
23:17 5.2 °C 2.8 °C 1024.9 hPa NNE 10.1 km/h 13 km/h 85 % 0 mm
23:22 5.2 °C 2.8 °C 1024.9 hPa NE 11.3 km/h 16.7 km/h 85 % 0 mm
23:27 5.2 °C 2.8 °C 1024.6 hPa North 10.3 km/h 16.7 km/h 85 % 0 mm
23:32 5.2 °C 2.8 °C 1024.6 hPa North 10.3 km/h 14.8 km/h 85 % 0 mm
23:37 5.2 °C 2.8 °C 1024.6 hPa WNW 8.7 km/h 13 km/h 85 % 0 mm
23:42 5.1 °C 2.9 °C 1024.9 hPa NNE 12.4 km/h 18.5 km/h 86 % 0 mm
23:47 5.1 °C 2.9 °C 1024.9 hPa North 7.1 km/h 13 km/h 86 % 0 mm
23:52 5.1 °C 2.9 °C 1024.9 hPa North 9.8 km/h 14.8 km/h 86 % 0 mm
23:57 5.1 °C 3.1 °C 1024.9 hPa North 7.1 km/h 12.9 km/h 87 % 0 mm
Crab Meadow Weather
Compliments of Weather Underground - 3 mb

Script developed by  Jim McMurry - jmcmurry@mwt.net Adapted for the template by  Wim van der Kuil - Leuven-Template.eu

Cloud Base: The cloud base is the distance from the sea level to the base of the clouds. It is estimated using the current temperature and humidity to indicate an altitude where the air could be cold enough for clouds to form. There may or may not be clouds at that altitude (or at any altitude)